Location: La Silve
(44.2414°N, 5.8889°E)
Time: 12:53:58
(UTC+00:00)

Cosmos 2369 Rocket - Pass Details

Date: 01 December 2020
Orbit: 829 x 852 km, 71.0° (Epoch: 25 January)

Event Time Altitude Azimuth Distance (km) Brightness Sun altitude
Rises 17:51:14 0° 332° (NNW) 3,420 5.6 -19.5°
Reaches altitude 10° 17:53:43 10° 330° (NNW) 2,478 4.9 -20.0°
Maximum altitude 17:59:21 66° 249° (WSW) 920 2.6 -21.0°
Drops below altitude 10° 18:04:54 10° 168° (SSE) 2,447 4.6 -21.9°
Sets 18:07:20 0° 166° (SSE) 3,374 5.3 -22.4°
